• In Czech Republic
  • List of Countries
  • For 7 days
  • Water Temperature
  • Satellite Maps
  • Weather Map
  • Weather Widgets
  • user-avatar
    Login

    Hourly Weather Czerwiecino

    Today, 20 October, Saturday

    Time Temperature Precipitation Wind Pressure Humidity
    00:00 +8°C° 0 mm 2 mps 765 mmHg 87%
    01:00 +8°C° 0 mm 2 mps 765 mmHg 88%
    02:00 +8°C° 0 mm 2 mps 765 mmHg 89%
    03:00 +8°C° 0 mm 3 mps 765 mmHg 89%
    04:00 +7°C° 0 mm 3 mps 765 mmHg 90%
    05:00 +7°C° 0 mm 3 mps 765 mmHg 89%
    06:00 +8°C° 0 mm 3 mps 765 mmHg 88%
    07:00 +8°C° 0 mm 3 mps 766 mmHg 87%
    08:00 +8°C° 0.1 mm 4 mps 766 mmHg 83%
    09:00 +8°C° 0.1 mm 4 mps 766 mmHg 79%
    10:00 +10°C° 0.1 mm 4 mps 766 mmHg 75%
    11:00 +11°C° 0.1 mm 4 mps 766 mmHg 71%
    12:00 +11°C° 0.1 mm 4 mps 766 mmHg 68%
    13:00 +12°C° 0.1 mm 5 mps 766 mmHg 65%
    14:00 +10°C° 0.1 mm 5 mps 766 mmHg 68%
    15:00 +10°C° 0.1 mm 5 mps 766 mmHg 70%
    16:00 +10°C° 0.1 mm 5 mps 766 mmHg 73%
    17:00 +9°C° 0.2 mm 5 mps 766 mmHg 76%
    18:00 +10°C° 0.2 mm 4 mps 766 mmHg 79%
    19:00 +8°C° 0.2 mm 4 mps 766 mmHg 82%
    20:00 +8°C° 0.1 mm 4 mps 766 mmHg 84%
    21:00 +8°C° 0.1 mm 4 mps 766 mmHg 86%
    22:00 +9°C° 0.1 mm 3 mps 766 mmHg 87%
    23:00 +9°C° 0 mm 3 mps 766 mmHg 89%

    Tomorrow, 21 October, Sunday

    Time Temperature Precipitation Wind Pressure Humidity
    00:00 +8°C° 0 mm 3 mps 766 mmHg 91%
    01:00 +8°C° 0 mm 2 mps 766 mmHg 92%
    02:00 +8°C° 0 mm 2 mps 766 mmHg 93%
    03:00 +8°C° 0 mm 2 mps 766 mmHg 93%
    04:00 +8°C° 0 mm 2 mps 766 mmHg 93%
    05:00 +8°C° 0 mm 2 mps 766 mmHg 93%
    06:00 +8°C° 0 mm 2 mps 767 mmHg 93%
    07:00 +8°C° 0 mm 2 mps 767 mmHg 93%
    08:00 +9°C° 0 mm 2 mps 767 mmHg 87%
    09:00 +12°C° 0 mm 2 mps 767 mmHg 81%
    10:00 +13°C° 0 mm 1 mps 768 mmHg 74%
    11:00 +14°C° 0 mm 2 mps 767 mmHg 70%
    12:00 +14°C° 0 mm 2 mps 767 mmHg 66%
    13:00 +15°C° 0 mm 2 mps 767 mmHg 62%
    14:00 +15°C° 0 mm 2 mps 767 mmHg 64%
    15:00 +14°C° 0 mm 2 mps 767 mmHg 67%
    16:00 +13°C° 0 mm 2 mps 767 mmHg 69%
    17:00 +12°C° 0 mm 2 mps 767 mmHg 73%
    18:00 +10°C° 0 mm 2 mps 767 mmHg 77%
    19:00 +9°C° 0 mm 3 mps 767 mmHg 81%
    20:00 +9°C° 0 mm 3 mps 767 mmHg 82%
    21:00 +8°C° 0 mm 3 mps 767 mmHg 83%
    22:00 +7°C° 0 mm 4 mps 766 mmHg 84%
    23:00 +7°C° 0 mm 4 mps 766 mmHg 84%

    Day after tomorrow, 22 October, Monday

    Time Temperature Precipitation Wind Pressure Humidity
    00:00 +6°C° 0 mm 4 mps 766 mmHg 85%
    01:00 +6°C° 0 mm 5 mps 766 mmHg 86%
    02:00 +6°C° 0 mm 5 mps 765 mmHg 86%
    03:00 +6°C° 0 mm 5 mps 765 mmHg 87%
    04:00 +6°C° 0 mm 5 mps 764 mmHg 88%
    05:00 +6°C° 0 mm 5 mps 764 mmHg 88%
    06:00 +6°C° 0 mm 5 mps 764 mmHg 89%
    07:00 +6°C° 0 mm 5 mps 764 mmHg 89%
    08:00 +6°C° 0.2 mm 5 mps 764 mmHg 88%
    09:00 +7°C° 0.2 mm 5 mps 764 mmHg 86%
    10:00 +8°C° 0.2 mm 5 mps 764 mmHg 84%
    11:00 +8°C° 0.3 mm 5 mps 764 mmHg 85%
    12:00 +8°C° 0.3 mm 5 mps 764 mmHg 86%
    13:00 +8°C° 0.3 mm 6 mps 764 mmHg 87%
    14:00 +9°C° 0.3 mm 5 mps 764 mmHg 84%
    15:00 +9°C° 0.3 mm 5 mps 764 mmHg 80%
    16:00 +9°C° 0.3 mm 5 mps 765 mmHg 76%
    17:00 +8°C° 0 mm 6 mps 765 mmHg 75%
    18:00 +8°C° 0 mm 6 mps 765 mmHg 74%
    19:00 +7°C° 0 mm 6 mps 765 mmHg 73%
    20:00 +7°C° 0 mm 5 mps 766 mmHg 74%
    21:00 +7°C° 0 mm 5 mps 766 mmHg 75%
    22:00 +6°C° 0 mm 5 mps 766 mmHg 75%
    23:00 +7°C° 0 mm 5 mps 766 mmHg 75%

    23 October, Tuesday

    Time Temperature Precipitation Wind Pressure Humidity
    00:00 +7°C° 0 mm 5 mps 766 mmHg 75%
    01:00 +7°C° 0 mm 5 mps 766 mmHg 75%
    02:00 +6°C° 0 mm 5 mps 765 mmHg 77%
    03:00 +6°C° 0 mm 5 mps 765 mmHg 78%
    04:00 +6°C° 0 mm 5 mps 765 mmHg 80%
    05:00 +6°C° 0 mm 5 mps 764 mmHg 82%
    06:00 +4°C° 0 mm 6 mps 764 mmHg 85%
    07:00 +4°C° 0 mm 7 mps 763 mmHg 87%
    08:00 +5°C° 0.2 mm 8 mps 762 mmHg 84%
    09:00 +6°C° 0.2 mm 9 mps 761 mmHg 81%
    10:00 +6°C° 0.2 mm 10 mps 760 mmHg 78%
    11:00 +6°C° 1.1 mm 10 mps 759 mmHg 80%
    12:00 +6°C° 1.1 mm 11 mps 758 mmHg 83%
    13:00 +5°C° 1.1 mm 12 mps 757 mmHg 85%
    14:00 +7°C° 1.7 mm 12 mps 755 mmHg 85%
    15:00 +7°C° 1.7 mm 13 mps 754 mmHg 85%
    16:00 +8°C° 1.7 mm 13 mps 752 mmHg 86%
    17:00 +8°C° 2.4 mm 13 mps 751 mmHg 87%
    18:00 +9°C° 2.4 mm 13 mps 750 mmHg 87%
    19:00 +10°C° 2.4 mm 13 mps 748 mmHg 88%
    20:00 +10°C° 1.2 mm 14 mps 748 mmHg 87%
    21:00 +10°C° 1.2 mm 14 mps 747 mmHg 85%
    22:00 +11°C° 1.2 mm 15 mps 746 mmHg 83%
    23:00 +10°C° 0.5 mm 14 mps 746 mmHg 79%

    24 October, Wednesday

    Time Temperature Precipitation Wind Pressure Humidity
    00:00 +10°C° 0.5 mm 13 mps 746 mmHg 76%
    01:00 +10°C° 0.5 mm 13 mps 747 mmHg 72%
    02:00 +9°C° 0 mm 12 mps 747 mmHg 72%
    03:00 +9°C° 0 mm 11 mps 748 mmHg 72%
    04:00 +8°C° 0 mm 10 mps 749 mmHg 72%
    05:00 +8°C° 0 mm 9 mps 750 mmHg 70%
    06:00 +7°C° 0 mm 9 mps 750 mmHg 68%
    07:00 +7°C° 0 mm 8 mps 751 mmHg 66%
    08:00 +7°C° 0 mm 8 mps 752 mmHg 61%
    09:00 +9°C° 0 mm 8 mps 752 mmHg 56%
    10:00 +9°C° 0 mm 8 mps 753 mmHg 50%
    11:00 +8°C° 0 mm 9 mps 753 mmHg 48%
    12:00 +8°C° 0 mm 9 mps 754 mmHg 45%
    13:00 +10°C° 0 mm 9 mps 754 mmHg 42%
    14:00 +9°C° 0 mm 8 mps 754 mmHg 46%
    15:00 +9°C° 0 mm 7 mps 754 mmHg 50%
    16:00 +8°C° 0 mm 6 mps 754 mmHg 54%
    17:00 +8°C° 0 mm 6 mps 755 mmHg 59%
    18:00 +7°C° 0 mm 6 mps 755 mmHg 63%
    19:00 +7°C° 0 mm 6 mps 755 mmHg 68%
    20:00 +7°C° 0 mm 5 mps 755 mmHg 69%
    21:00 +7°C° 0 mm 5 mps 755 mmHg 70%
    22:00 +7°C° 0 mm 5 mps 756 mmHg 71%
    23:00 +7°C° 0 mm 5 mps 755 mmHg 73%

    25 October, Thursday

    Time Temperature Precipitation Wind Pressure Humidity
    00:00 +6°C° 0 mm 5 mps 755 mmHg 76%
    01:00 +6°C° 0 mm 5 mps 755 mmHg 78%
    02:00 +7°C° 0.1 mm 6 mps 754 mmHg 81%
    03:00 +8°C° 0.1 mm 7 mps 754 mmHg 84%
    04:00 +9°C° 0.1 mm 8 mps 753 mmHg 87%
    05:00 +9°C° 0.2 mm 10 mps 753 mmHg 85%
    06:00 +9°C° 0.2 mm 11 mps 752 mmHg 83%
    07:00 +10°C° 0.2 mm 12 mps 752 mmHg 81%
    08:00 +10°C° 0.1 mm 12 mps 751 mmHg 80%
    09:00 +9°C° 0.1 mm 12 mps 751 mmHg 78%
    10:00 +9°C° 0.1 mm 11 mps 751 mmHg 77%
    11:00 +9°C° 0.1 mm 12 mps 751 mmHg 77%
    12:00 +9°C° 0.1 mm 12 mps 751 mmHg 76%
    13:00 +10°C° 0.1 mm 12 mps 750 mmHg 76%
    14:00 +10°C° 0.1 mm 12 mps 750 mmHg 75%
    15:00 +10°C° 0.1 mm 13 mps 750 mmHg 74%
    16:00 +10°C° 0.1 mm 13 mps 749 mmHg 73%
    17:00 +10°C° 0.3 mm 12 mps 749 mmHg 76%
    18:00 +10°C° 0.3 mm 12 mps 749 mmHg 78%
    19:00 +9°C° 0.3 mm 12 mps 749 mmHg 81%
    20:00 +9°C° 0.6 mm 12 mps 748 mmHg 77%
    21:00 +9°C° 0.6 mm 13 mps 748 mmHg 72%
    22:00 +8°C° 0.6 mm 13 mps 748 mmHg 68%
    23:00 +8°C° 0.2 mm 13 mps 749 mmHg 67%
    Show more